Temperature
8 7 6 7 8 9 9 8 8 9 10 9 9 9 9 10 10 9 10 10 10 10 11 11 10 10 10 10 9 9 9 9 9 9 9 9 9 9 9 9 9 9 9 9
7 7 8 8 8 8 8 8 8 9 9 9 8 8 9 9 9 10 9 10 10 10 10 10 10 10 10 9 9 9 9 9 9 9 9 9 9 9 9 9 9 9 9 9
7 8 9 9 8 8 8 8 8 8 9 9 8 8 8 9 9 10 10 10 10 10 10 10 10 9 9 9 9 9 8 8 9 9 8 8 8 8 8 8 8 8 8 8
7 8 8 8 8 8 8 9 9 8 8 7 8 7 7 8 8 8 8 9 9 9 9 9 9 9 9 9 8 8 8 8 8 8 8 8 8 8 8 8 8 8 8 8
7 7 8 8 8 8 8 9 8 8 7 6 7 6 7 7 7 8 8 8 9 9 9 9 9 9 9 8 8 8 8 8 8 8 8 8 8 8 8 8 8 8 8 8
7 7 8 8 8 8 8 8 7 6 6 6 6 6 6 6 7 8 7 8 9 9 9 9 9 8 8 8 8 8 8 7 7 7 7 7 7 7 7 7 7 7 7 7
6 7 7 8 7 7 7 6 6 5 5 6 6 6 7 7 7 8 7 8 8 8 8 8 8 8 8 8 8 7 7 7 7 7 7 7 7 7 7 7 7 7 7 7
5 5 6 7 7 6 6 6 5 6 6 5 6 6 6 7 7 8 8 8 8 8 8 8 8 8 8 8 7 7 7 7 7 7 7 7 7 6 7 7 7 7 7 7
4 5 6 7 7 7 6 5 6 5 5 5 5 6 6 7 6 6 6 7 7 7 8 7 7 7 7 7 7 7 7 7 7 7 6 6 6 6 6 6 6 6 6 6
4 4 5 6 7 7 6 6 5 5 5 6 6 6 6 6 6 6 5 6 6 7 7 7 7 7 7 7 7 7 7 7 6 6 6 6 6 6 6 6 6 6 6 6
4 3 4 5 5 5 5 5 5 4 5 5 5 6 6 6 6 5 5 5 6 6 6 6 6 6 6 6 6 6 6 6 6 6 6 6 6 5 5 5 5 5 5 5
3 2 2 3 4 5 5 5 5 5 4 4 4 5 6 5 5 5 5 5 5 6 6 6 6 6 6 6 6 6 5 5 5 5 5 5 5 5 5 5 5 5 5 5
3 2 2 3 4 4 4 4 4 4 4 3 4 5 5 5 5 5 5 5 5 5 5 5 5 5 5 5 5 5 5 5 5 5 5 5 5 5 5 5 5 4 4 4
3 2 2 3 3 3 3 3 4 3 3 3 4 5 5 4 4 4 4 4 5 5 5 5 5 5 5 5 5 5 4 4 4 4 4 4 4 4 4 4 4 4 4 4
2 1 2 2 3 3 3 3 3 3 3 3 4 4 4 4 4 4 4 4 4 4 4 4 4 4 4 4 4 4 4 4 4 4 4 4 4 3 3 3 3 3 3 3
1 1 1 2 3 3 3 3 3 3 4 3 4 3 4 4 4 3 3 3 3 3 3 4 4 4 4 4 4 4 4 4 4 3 3 3 3 3 3 3 3 3 3 3
0 0 1 1 2 3 2 3 3 3 2 3 3 3 3 2 2 2 3 3 3 3 3 3 4 3 4 3 3 3 3 3 3 3 3 3 2 2 2 2 2 2 2 2
-0 0 0 1 1 2 2 3 3 2 2 2 2 2 2 2 2 2 3 3 3 3 3 3 3 3 3 3 3 3 3 3 3 2 2 2 2 2 2 2 2 2 2 2
-0 0 0 0 1 2 2 2 2 2 2 1 2 1 1 2 2 2 3 3 3 3 3 3 3 3 3 3 3 3 2 2 2 2 2 2 2 2 1 1 1 1 1 1
-0 -0 -0 -0 1 1 1 1 2 2 1 1 1 1 1 1 1 1 2 2 2 2 3 3 3 3 2 2 2 2 2 2 2 2 2 1 1 1 1 1 1 1 1 1
-1 -1 -1 -1 -0 0 0 0 2 1 1 1 1 1 1 0 1 1 1 2 2 2 2 2 2 2 2 2 2 2 2 1 1 1 1 1 1 1 1 1 1 0 0 0
-2 -2 -1 -1 -1 -0 -0 0 0 0 1 1 0 0 0 0 0 1 1 1 1 1 1 2 2 1 1 1 1 1 1 1 1 1 0 0 0 0 0 0 0 0 -0 -0
-2 -2 -2 -1 -1 -1 -0 -0 0 0 0 0 0 0 0 -0 -0 0 0 0 1 1 1 1 1 1 1 1 1 1 0 0 0 -0 -0 -0 -0 -0 -0 -0 -0 -0 -1 -1
-3 -2 -2 -2 -2 -1 -1 -1 -0 -0 -0 -0 -0 -0 -0 -1 -1 -1 -0 -0 -0 -0 -0 0 0 0 0 -0 -0 -0 -0 -0 -0 -0 -1 -1 -1 -1 -1 -1 -1 -1 -1 -1
-3 -3 -3 -2 -2 -2 -2 -1 -1 -1 -1 -1 -1 -1 -1 -1 -1 -1 -1 -1 -1 -1 -1 -1 -1 -1 -1 -1 -1 -1 -1 -1 -1 -1 -1 -1 -1 -1 -1 -1 -1 -1 -1 -2
-4 -3 -3 -3 -3 -3 -2 -2 -2 -2 -2 -2 -2 -2 -2 -2 -1 -1 -1 -1 -1 -1 -1 -1 -1 -1 -1 -1 -1 -1 -1 -1 -1 -1 -2 -2 -2 -2 -2 -2 -2 -2 -2 -2
Wind_Speed
3 3 8 11 12 7 5 5 7 7 5 5 9 12 11 8 7 7 7 6 6 7 6 4 4 5 5 5 5 5 4 4 4 3 3 3 3 2 2 2 4 4 4 4
2 9 12 7 7 7 7 8 8 6 3 5 7 11 10 8 9 9 9 8 7 6 4 4 4 5 5 6 6 5 5 4 4 3 3 2 2 2 2 2 2 4 4 4
9 7 7 8 8 9 10 11 10 7 4 3 3 7 7 5 5 6 7 7 7 7 6 5 5 5 6 6 6 5 5 4 4 4 3 3 2 1 1 1 1 2 4 4
8 6 6 7 9 9 10 8 8 6 3 5 3 5 7 5 5 6 6 6 6 5 5 5 5 6 6 6 5 5 5 4 4 5 5 5 3 2 2 2 2 1 3 3
7 4 6 9 10 9 8 4 4 4 4 4 4 5 7 4 6 7 7 7 6 6 6 6 6 6 5 4 5 5 5 4 4 4 5 5 3 2 2 1 2 1 1 2
7 5 5 5 3 6 3 1 1 2 1 6 8 7 7 6 9 7 6 6 6 6 5 5 5 4 4 3 3 4 5 4 4 4 4 5 5 4 4 2 2 1 1 1
5 5 4 3 2 1 3 4 0 2 3 7 5 6 8 7 6 8 8 7 5 5 5 5 5 5 5 5 4 5 5 5 4 4 4 4 4 5 5 4 3 3 2 1
3 6 4 3 5 6 7 8 7 6 6 4 3 7 7 5 3 5 5 5 4 3 3 4 5 6 6 6 5 5 5 5 5 5 5 4 4 3 3 3 4 4 3 2
4 6 3 3 3 6 6 6 6 3 2 3 5 5 5 1 1 3 4 4 3 3 3 4 4 4 5 5 5 5 5 5 5 5 5 4 4 3 3 2 2 3 2 2
3 5 5 3 1 2 4 5 4 5 5 6 5 5 5 5 4 4 4 4 3 2 2 3 3 3 3 3 3 3 3 4 4 4 4 4 4 3 3 3 3 2 2 2
2 3 4 1 4 5 3 3 4 4 4 5 4 6 4 7 6 6 4 4 3 3 2 2 2 3 3 3 3 3 3 3 3 4 4 3 3 3 4 3 3 3 3 3
1 2 4 6 5 3 5 5 5 4 5 4 4 5 2 2 3 4 3 2 1 1 2 2 2 3 3 3 3 3 3 3 3 3 4 4 3 3 3 3 3 3 3 3
1 2 2 4 3 1 2 3 3 2 2 4 5 5 2 4 4 3 3 2 1 1 2 2 2 2 2 2 2 3 3 3 2 3 4 3 3 3 3 3 3 3 3 3
2 3 6 8 6 4 5 6 5 3 4 5 6 6 3 1 1 1 1 1 2 2 2 2 1 1 1 1 2 2 2 2 3 3 4 3 3 3 3 3 3 3 3 4
1 4 6 9 8 6 7 9 8 9 9 8 7 7 6 4 3 2 2 1 2 1 1 1 1 1 0 0 1 1 1 1 3 4 4 3 3 3 3 3 3 3 3 3
1 4 4 7 5 6 8 8 8 10 9 8 6 7 3 1 1 0 1 2 1 1 2 1 1 1 1 1 1 1 2 2 3 4 3 3 4 4 3 3 3 3 2 2
3 3 3 5 4 3 6 6 6 4 3 4 7 6 1 0 1 3 3 2 2 2 2 2 2 2 2 2 2 2 2 2 3 3 3 4 4 3 3 3 3 2 2 2
6 5 3 3 2 5 5 1 3 4 0 2 2 2 1 2 2 1 1 1 2 2 2 2 2 2 1 1 1 2 2 3 3 3 3 4 4 3 3 3 3 2 2 2
5 4 2 2 4 5 5 3 1 2 2 2 2 1 1 0 3 3 2 1 1 2 2 2 2 1 1 1 1 3 3 2 2 2 3 3 4 3 3 2 2 2 2 1
1 2 2 2 2 3 4 7 6 2 1 4 2 1 1 2 1 4 3 2 2 2 2 1 1 2 1 1 2 3 3 2 2 2 2 2 3 3 3 3 2 1 2 2
2 0 2 2 3 3 5 7 4 2 3 4 2 2 1 0 2 2 2 2 2 3 3 2 2 2 1 1 3 3 2 1 1 1 2 2 2 2 2 2 1 1 1 1
1 1 2 1 2 4 5 4 1 2 3 3 3 2 2 1 2 2 2 3 3 4 3 3 2 2 2 2 3 2 0 0 1 2 2 2 1 1 1 2 1 1 2 2
1 2 2 3 3 3 2 1 2 2 3 3 2 3 2 2 2 3 3 3 3 3 3 3 2 2 2 2 2 2 0 0 1 1 1 1 1 1 1 2 2 1 1 2
4 3 0 2 3 4 4 4 5 4 3 3 3 2 2 2 2 3 3 3 3 3 3 3 2 2 2 2 2 1 0 1 1 1 1 1 1 1 1 1 2 2 2 3
4 3 2 3 4 4 5 6 5 5 5 5 5 4 3 2 2 2 2 2 2 3 3 2 2 1 1 2 2 2 1 1 1 0 0 1 1 1 1 1 2 3 3 4
3 2 1 3 4 3 4 6 5 5 5 5 5 5 5 3 1 2 2 2 2 2 3 3 2 2 1 1 2 2 1 0 1 0 1 1 1 1 1 1 2 4 4 6
Wind_Direction
187 174 213 212 208 214 212 222 242 247 233 213 233 251 255 248 227 226 224 216 213 216 216 192 182 168 154 147 149 161 165 164 152 153 157 166 178 189 201 184 180 176 175 169
179 232 231 213 207 225 238 247 258 277 248 227 249 260 256 241 226 219 215 212 208 208 205 190 174 160 161 160 160 166 171 171 168 172 171 171 174 187 203 174 161 168 170 173
214 233 213 206 210 218 236 232 238 248 294 281 281 285 259 249 224 218 214 210 202 199 200 190 176 170 165 167 172 176 181 179 169 161 143 119 99 77 98 175 191 184 173 169
238 243 223 218 224 211 240 229 225 229 236 263 204 266 263 235 235 222 217 206 202 197 187 182 180 180 180 183 179 174 175 177 170 164 160 156 168 183 208 198 193 184 167 163
241 227 216 225 229 208 229 218 217 225 210 260 232 227 271 228 234 230 219 209 204 199 189 185 187 189 184 181 179 174 165 175 172 171 170 167 175 178 162 158 167 176 158 152
248 245 224 222 227 206 200 93 35 38 119 251 222 202 265 221 219 217 214 207 205 199 192 189 187 175 170 170 169 167 162 172 175 173 172 170 174 164 155 163 179 196 175 165
277 257 237 199 193 195 142 127 81 283 233 244 203 201 247 238 217 202 202 201 201 192 188 182 172 170 172 173 175 174 169 176 179 175 178 180 181 177 176 180 182 188 179 179
254 273 235 218 202 192 196 170 181 208 217 253 214 222 247 258 216 183 177 176 171 169 174 175 178 177 176 175 175 177 179 183 181 179 181 177 174 182 185 179 172 177 183 188
222 260 290 252 247 174 170 199 191 166 205 231 246 265 291 304 119 144 149 147 157 168 166 170 171 171 175 178 181 182 180 177 176 175 171 171 170 174 171 168 163 164 167 163
205 259 278 277 295 232 181 165 142 175 197 231 250 239 225 209 198 183 172 171 174 170 155 156 161 164 170 173 170 163 168 172 167 167 174 175 175 175 168 167 164 156 156 150
226 234 285 288 209 214 179 182 182 183 194 192 229 252 215 189 185 182 186 174 173 173 170 167 160 155 144 132 140 147 150 147 154 165 169 162 166 167 166 170 170 165 155 148
253 205 254 255 265 251 206 202 178 197 228 206 210 256 298 163 160 151 149 154 162 173 157 150 142 125 123 132 145 152 155 159 167 163 157 161 161 163 162 166 167 160 156 152
262 212 282 315 318 320 234 220 211 221 195 195 203 251 348 69 85 97 113 108 104 102 114 106 105 112 138 154 154 151 158 166 163 155 150 150 153 162 165 166 158 150 151 149
281 222 217 229 241 233 262 266 238 208 218 223 223 243 303 14 72 85 107 128 138 131 130 118 110 114 145 154 154 154 159 161 156 149 145 149 159 159 156 150 144 149 155 153
189 241 249 256 257 245 252 251 232 222 220 217 229 230 244 228 223 214 196 163 131 125 132 158 178 169 148 140 153 149 150 149 151 147 149 157 145 130 125 127 136 141 147 154
247 247 269 276 263 250 269 262 235 233 232 233 242 261 267 234 147 232 220 177 188 223 233 221 204 199 198 202 205 178 165 164 148 147 155 148 133 126 126 131 131 133 139 150
236 217 237 267 281 305 267 256 220 209 209 202 229 246 263 8 228 230 228 207 234 259 267 245 222 220 215 211 203 192 182 152 139 143 146 142 137 138 145 144 136 144 154 154
225 220 221 259 293 239 257 307 182 161 161 199 208 243 206 220 254 276 212 195 256 274 274 273 259 240 228 201 181 156 135 139 139 139 144 144 141 142 145 147 156 162 163 170
220 209 206 209 238 268 300 336 345 170 292 325 219 278 327 12 43 360 341 328 271 275 285 270 254 236 188 165 145 125 120 128 139 148 151 154 150 151 153 162 172 174 172 182
29 180 193 208 222 243 300 322 317 126 295 346 360 333 342 55 58 290 317 344 355 357 346 345 22 74 87 110 123 122 135 142 168 177 167 156 152 159 172 185 187 185 183 195
359 331 220 230 233 264 313 327 15 108 276 323 344 344 5 313 243 289 341 9 24 19 13 29 59 78 89 97 116 121 125 169 195 155 145 142 145 158 169 166 171 173 179 179
296 268 241 203 225 270 332 11 74 272 330 350 5 14 25 5 5 20 24 22 26 27 25 35 63 54 43 79 107 107 134 272 111 129 134 137 136 142 149 146 158 169 171 180
282 237 225 201 222 300 336 346 327 4 3 357 13 3 29 28 14 18 17 14 14 24 25 30 72 64 36 41 88 121 249 62 100 123 143 151 143 137 147 159 177 189 189 201
310 324 322 294 306 336 354 8 9 8 1 360 5 5 26 29 14 9 8 7 12 19 22 25 53 65 31 18 27 24 288 131 121 133 164 169 154 141 148 187 199 201 206 216
292 306 296 285 312 349 0 356 354 5 13 17 15 14 14 33 13 8 359 352 360 7 11 25 35 43 10 7 1 349 351 96 101 120 206 169 170 188 217 242 231 230 231 227
341 317 283 288 309 307 311 327 349 10 7 8 14 4 356 0 5 1 352 348 353 2 14 21 15 5 347 351 346 341 344 125 156 234 270 245 232 242 249 269 298 286 267 266
Height
1491 1495 1493 1490 1490 1489 1490 1491 1491 1487 1483 1485 1484 1480 1476 1475 1476 1476 1475 1475 1476 1476 1477 1479 1480 1481 1482 1483 1485 1486 1488 1489 1490 1492 1493 1494 1494 1496 1497 1498 1499 1500 1502 1503
1493 1491 1484 1485 1487 1489 1489 1490 1489 1485 1482 1483 1482 1478 1473 1472 1471 1471 1471 1471 1471 1473 1474 1475 1476 1477 1479 1480 1481 1483 1485 1486 1487 1489 1490 1491 1492 1493 1494 1495 1496 1497 1499 1500
1486 1482 1480 1483 1484 1486 1486 1487 1486 1486 1483 1482 1482 1479 1473 1468 1467 1467 1467 1467 1468 1469 1470 1471 1473 1474 1476 1477 1479 1480 1482 1484 1485 1486 1488 1489 1489 1490 1491 1491 1493 1494 1496 1497
1483 1478 1479 1480 1480 1482 1483 1479 1480 1482 1486 1488 1484 1486 1472 1468 1466 1465 1464 1464 1465 1466 1467 1469 1470 1471 1473 1474 1476 1478 1480 1481 1482 1484 1484 1485 1486 1486 1487 1489 1490 1491 1493 1494
1479 1476 1476 1476 1474 1476 1477 1475 1478 1480 1483 1487 1485 1487 1473 1467 1466 1463 1461 1461 1462 1463 1465 1466 1467 1469 1470 1472 1473 1475 1477 1478 1479 1481 1481 1482 1483 1484 1485 1486 1487 1488 1489 1491
1475 1473 1473 1471 1470 1472 1473 1476 1479 1484 1487 1488 1480 1484 1473 1466 1460 1458 1458 1459 1460 1461 1462 1463 1465 1466 1467 1469 1471 1472 1473 1475 1476 1478 1478 1479 1481 1482 1483 1483 1484 1485 1486 1488
1475 1472 1469 1468 1470 1472 1474 1481 1489 1490 1491 1482 1474 1475 1467 1456 1453 1453 1454 1455 1456 1458 1458 1460 1461 1463 1464 1466 1468 1469 1470 1472 1473 1474 1476 1477 1478 1479 1480 1480 1481 1482 1483 1484
1480 1476 1468 1467 1467 1470 1472 1475 1484 1484 1483 1479 1473 1471 1461 1452 1450 1450 1452 1453 1454 1455 1456 1457 1458 1460 1462 1463 1465 1466 1467 1469 1470 1471 1473 1474 1475 1476 1477 1478 1478 1479 1481 1482
1480 1475 1466 1465 1464 1465 1470 1472 1472 1479 1480 1480 1473 1465 1456 1450 1449 1449 1450 1451 1452 1453 1454 1455 1457 1458 1460 1461 1462 1463 1465 1466 1467 1468 1470 1471 1472 1473 1474 1475 1476 1477 1478 1480
1476 1476 1467 1464 1463 1463 1465 1467 1474 1477 1476 1474 1467 1464 1458 1451 1449 1449 1449 1450 1451 1453 1453 1454 1455 1456 1458 1459 1460 1461 1462 1463 1464 1465 1467 1468 1469 1471 1472 1473 1474 1475 1476 1477
1474 1476 1470 1467 1465 1464 1466 1467 1467 1471 1471 1472 1469 1460 1446 1445 1445 1447 1448 1449 1450 1451 1452 1452 1453 1455 1456 1457 1458 1459 1460 1461 1462 1463 1464 1465 1467 1468 1470 1471 1471 1473 1474 1475
1474 1476 1475 1468 1462 1460 1461 1463 1465 1469 1468 1469 1468 1459 1442 1443 1443 1445 1447 1449 1449 1450 1451 1452 1452 1453 1454 1455 1456 1457 1458 1458 1459 1461 1462 1463 1464 1465 1467 1468 1469 1470 1472 1473
1473 1474 1474 1468 1467 1464 1462 1461 1462 1464 1466 1468 1466 1456 1444 1443 1445 1446 1447 1448 1449 1450 1450 1451 1451 1451 1452 1453 1454 1454 1455 1456 1457 1458 1459 1460 1461 1463 1464 1465 1467 1468 1470 1471
1470 1471 1471 1468 1462 1463 1463 1461 1460 1464 1465 1463 1458 1452 1447 1446 1446 1447 1447 1448 1448 1449 1449 1449 1450 1450 1451 1451 1452 1452 1453 1454 1455 1456 1457 1458 1459 1460 1461 1463 1465 1466 1467 1468
1468 1469 1466 1461 1458 1458 1458 1456 1456 1458 1457 1456 1450 1450 1446 1446 1446 1446 1447 1447 1448 1448 1448 1448 1448 1449 1449 1450 1450 1451 1451 1452 1453 1454 1455 1456 1457 1458 1459 1461 1462 1464 1465 1466
1468 1468 1465 1460 1454 1455 1453 1451 1451 1450 1450 1450 1448 1448 1444 1445 1446 1446 1446 1446 1447 1447 1447 1447 1447 1447 1447 1448 1448 1449 1449 1450 1451 1452 1453 1454 1455 1456 1458 1459 1460 1461 1463 1464
1468 1467 1466 1462 1455 1453 1452 1447 1447 1447 1447 1447 1447 1446 1444 1445 1445 1445 1445 1445 1445 1445 1445 1445 1445 1446 1446 1446 1446 1447 1448 1449 1449 1450 1451 1452 1453 1455 1456 1457 1458 1459 1460 1461
1465 1464 1463 1461 1459 1457 1449 1444 1443 1444 1445 1445 1444 1443 1443 1443 1443 1444 1444 1444 1444 1444 1444 1444 1444 1444 1444 1445 1445 1446 1446 1447 1447 1448 1449 1450 1451 1452 1454 1455 1455 1456 1457 1458
1459 1460 1462 1461 1459 1451 1446 1445 1444 1444 1445 1444 1444 1443 1443 1442 1442 1442 1443 1443 1442 1442 1442 1442 1443 1443 1443 1443 1443 1444 1445 1445 1446 1446 1447 1448 1449 1450 1451 1452 1453 1454 1454 1455
1457 1458 1461 1460 1457 1456 1450 1445 1442 1444 1447 1445 1444 1443 1443 1442 1445 1444 1442 1441 1441 1441 1441 1441 1441 1441 1441 1442 1442 1443 1443 1444 1444 1445 1446 1447 1447 1448 1449 1450 1450 1451 1452 1452
1462 1461 1461 1460 1458 1455 1451 1446 1443 1450 1450 1446 1444 1443 1443 1443 1444 1443 1442 1441 1441 1440 1440 1440 1440 1440 1440 1441 1441 1441 1442 1442 1443 1443 1444 1445 1445 1446 1447 1448 1448 1449 1449 1450
1464 1464 1461 1460 1461 1459 1451 1448 1450 1450 1446 1445 1444 1443 1442 1442 1442 1441 1441 1440 1440 1439 1439 1439 1438 1438 1439 1439 1440 1440 1440 1441 1441 1442 1442 1442 1443 1444 1444 1445 1446 1446 1447 1447
1463 1462 1459 1459 1459 1454 1451 1450 1449 1447 1446 1445 1444 1443 1442 1442 1441 1441 1440 1440 1440 1439 1439 1438 1438 1438 1438 1439 1439 1439 1439 1440 1440 1440 1440 1441 1441 1442 1442 1442 1443 1443 1444 1444
1462 1459 1459 1458 1455 1453 1452 1450 1449 1447 1446 1445 1444 1443 1442 1441 1441 1441 1440 1440 1439 1439 1438 1438 1437 1437 1437 1437 1437 1438 1438 1438 1438 1438 1438 1439 1439 1439 1440 1440 1440 1440 1440 1441
1463 1460 1459 1458 1456 1454 1452 1451 1449 1448 1447 1445 1444 1443 1442 1441 1441 1440 1440 1439 1438 1438 1438 1437 1436 1436 1436 1436 1436 1437 1437 1437 1436 1436 1437 1437 1437 1437 1437 1437 1438 1438 1438 1438
1463 1462 1461 1458 1457 1455 1453 1451 1450 1448 1446 1445 1443 1442 1442 1441 1440 1439 1439 1438 1438 1437 1437 1436 1436 1435 1435 1435 1435 1435 1435 1435 1435 1435 1435 1435 1435 1435 1435 1435 1435 1435 1435 1435